Regional Weather Roundup
Issued by NWS

Home | Current Version | Previous Version | Graphics & Text | Print | Product List | Glossary On
Versions: 1 2 3 4 5 6 7 8 9 10 11 12 13 14 15 16 17 18 19 20 21 22 23 24 25 26 27 28 29 30 31 32 33 34 35 36 37 38 39 40 41 42 43 44 45 46 47 48 49 50
000
ASUS43 KLOT 311410
RWRIL

ILLINOIS REGIONAL WEATHER ROUNDUP
NATIONAL WEATHER SERVICE CHICAGO/ROMEOVILLE IL
800 AM CST SAT JAN 31 2015

NOTE: "FAIR" INDICATES FEW OR NO CLOUDS BELOW 12,000 FEET WITH NO
SIGNIFICANT WEATHER AND/OR OBSTRUCTIONS TO VISIBILITY.

* THESE STATIONS ARE NOT UNDER NWS QUALITY CONTROL. THEY ALSO MAY NOT
  REPORT WEATHER SUCH AS PRECIPITATION OR FOG.

ILZ001-002-007-009-015-016-024-311500-
NORTHWEST ILLINOIS

CITY           SKY/WX    TMP DP  RH WIND       PRES   REMARKS
MOLINE         CLOUDY    30  22  72 SW9       30.23S WCI  22
STERLING*      FAIR      25  19  80 CALM      30.23S
SAVANNA*       MOCLDY    23  19  87 SE5       30.22F WCI  17
$$

ILZ003-004-008-010-011-017-018-311500-
NORTH CENTRAL ILLINOIS

CITY           SKY/WX    TMP DP  RH WIND       PRES   REMARKS
ROCKFORD       MOCLDY    25  18  74 S3        30.24R
FREEPORT*      PTCLDY    23  18  81 SW12      30.22R WCI  12
ROCHELLE*      PTCLDY    21  18  86 S6        30.24R WCI  14
DE KALB*       PTCLDY    21  18  87 SW9       30.22R WCI  10
PERU*          CLOUDY    28  22  78 SW8       30.26S WCI  20
$$

ILZ005-006-012>014-019>023-311500-
NORTHEAST ILLINOIS

CITY           SKY/WX    TMP DP  RH WIND       PRES   REMARKS
CHICAGO-OHARE  MOCLDY    25  19  78 SW7       30.23S WCI  17
CHICAGO-MIDWAY MOCLDY    27  22  81 SW8       30.25F WCI  19
AURORA         PTCLDY    25  19  78 S6        30.24F WCI  18
LANSING*       MOCLDY    25  22  86 SW8       30.26F WCI  17
JOLIET*        CLOUDY    26  21  82 S7        30.26S WCI  18
WAUKEGAN       CLOUDY    27  19  72 SW8       30.20S WCI  19
DUPAGE AIRPORT PTCLDY    24  19  81 S6        30.23S WCI  17
KANKAKEE*      MOCLDY    27  23  87 S9        30.29S WCI  17
WHEELING       CLOUDY    27  18  69 SW7       30.24F WCI  19
MORRIS*        MOCLDY    25  23  91 S6        30.25F WCI  18
ROMEOVILLE*    MOCLDY    27  22  81 SW10      30.25S WCI  17
NORTHERLY ISL    N/A     28  21  75 W6          N/A  WCI  22
$$

LMZ740>746-311500-
SOUTHERN LAKE MICHIGAN

STATION/POSITION SKY/WX   TEMP    WIND        PRES    VSBY  WAVE
                          AIR SEA DIR/SP/G                  HT/PER
                          (F)     (DEG/KT/KT) (MB)    (MI)  (FT/S)
WAUKEGAN HARBOR            27     240/ 13/ 17   N/A
HARRISON CRIB              29     230/ 19/ 23   N/A
BURNHAM HARBOR             28     190/  9       N/A
CALUMET HARBOR             26     210/  7/ 12   N/A
MICHIGAN CITY              25     160/ 13/ 16   N/A
$$

ILZ025>027-034>036-040-047-049-050-058-095>099-311500-
WEST-CENTRAL ILLINOIS

CITY           SKY/WX    TMP DP  RH WIND       PRES   REMARKS
QUINCY         CLOUDY    31  21  66 SW7       30.29S WCI  24
GALESBURG*     CLOUDY    30  26  83 SW7       30.25F WCI  23
MACOMB*        CLOUDY    29  24  78 SW7       30.29F WCI  22
JACKSONVILLE*  CLOUDY    32  24  71 SW9       30.32R WCI  24
PITTSFIELD*    CLOUDY    31  23  70 SW3       30.32S
$$

ILZ028>032-037-038-041>044-048-051>054-059>061-311500-
CENTRAL ILLINOIS

CITY           SKY/WX    TMP DP  RH WIND       PRES   REMARKS
PONTIAC        MOCLDY    28  24  84 SW8       30.29S WCI  20
BLOOMINGTON    MOCLDY    27  24  88 SW12      30.29S WCI  17
DECATUR        MOCLDY    29  23  78 SW9       30.31F WCI  20
PEORIA         CLOUDY    29  22  75 SW7       30.29S WCI  22
LACON*         CLOUDY    28  21  77 SW7       30.26F WCI  20
LINCOLN*       CLOUDY    31  26  81 CALM      30.32S
SPRINGFIELD    MOCLDY    31  23  72 SW8       30.32R WCI  23
TAYLORVILLE    MOCLDY    30  25  80 SW9       30.32S WCI  22
$$

ILZ033-039-045-046-055>057-062-063-311500-
EAST-CENTRAL ILLINOIS

CITY           SKY/WX    TMP DP  RH WIND       PRES   REMARKS
CHAMPAIGN      MOCLDY    27  22  81 S8        30.31S WCI  19
DANVILLE*      PTCLDY    26  21  82 SW8       30.30R WCI  17
RANTOUL*       PTCLDY    29  24  82 SW7       30.31S WCI  22
MATTOON        MOCLDY    28  21  75 S10       30.32R WCI  19
PARIS*         MOCLDY    28  24  84 SW8       30.35R WCI  20
$$

ILZ079-100>102-311500-
SOUTHWEST ILLINOIS

CITY           SKY/WX    TMP DP  RH WIND       PRES   REMARKS
ALTON          CLOUDY    30  23  74 S7        30.34S WCI  23
BELLEVILLE     MOCLDY    28  27  94 S3        30.35S
CAHOKIA*       CLOUDY    30  24  78 CALM      30.35S
SPARTA*        CLOUDY    32  22  68 S6        30.37S WCI  26
$$

ILZ064>066-069>071-074>076-080>082-084>086-088>090-092>094-311500-
SOUTH-CENTRAL ILLINOIS

CITY           SKY/WX    TMP DP  RH WIND       PRES   REMARKS
CARBONDALE     CLOUDY    29  24  82 S3        30.38R
CAIRO*         CLOUDY    33  28  82 CALM      30.39S
EFFINGHAM*     MOCLDY    28  20  71 S5        30.36S WCI  23
MARION         CLOUDY    32  27  80 S6        30.39R WCI  26
MT. VERNON     MOCLDY    27  21  80 SW5       30.38R WCI  21
CENTRALIA*     MOCLDY    30  24  76 S8        30.36S WCI  23
SALEM*         MOCLDY    31  25  78 S7        30.36R WCI  25
METROPOLIS*    CLOUDY    29  27  92 CALM      30.39R
$$

ILZ067-068-072-073-078-083-087-091-311500-
SOUTHEAST ILLINOIS

CITY           SKY/WX    TMP DP  RH WIND       PRES   REMARKS
LAWRENCEVILLE  PTSUNNY   26  23  88 S3        30.38S
FLORA*         MOCLDY    28  24  86 S5        30.37S WCI  22
FAIRFIELD*     MOCLDY    28  24  85 CALM      30.37R
HARRISBURG*    MOCLDY    27  27  97 CALM      30.40R
ROBINSON*      MOCLDY    26  23  88 S5        30.38S WCI  21
CARMI*         PTSUNNY   30  29  95 S3        30.38S
$$

ABBREVIATIONS USED IN REMARKS
   TC - TEMPERATURE IN CELSIUS
  WCI - WIND CHILL INDEX
   HX - HEAT INDEX
  VSB - VISIBILITY
$$



USA.gov is the U.S. government's official web portal to all federal, state and local government web resources and services.